Yellow Mule RAWS (NWS)

Elevation
9200ft
Aggregated by Synoptic Data
Date/Time Wind Direction Wind Speed knots Wind Gust knots RH % Accumulated Precip Inches Air Temp Fahrenheit
2024-04-13 00:04 SSW 13 23 75 0.97 36
2024-04-12 23:04 S 17 31 81 0.97 35
2024-04-12 22:04 SSE 14 35 84 0.96 34
2024-04-12 21:04 S 10 15 56 0.96 40
2024-04-12 20:04 SSE 11 17 53 0.96 41
2024-04-12 19:04 SSE 11 22 49 0.96 42
2024-04-12 18:04 S 17 25 42 0.96 44
2024-04-12 17:04 SSE 13 27 33 0.96 48
2024-04-12 16:04 SSE 16 25 35 0.96 47
2024-04-12 15:04 SSE 13 36 38 0.96 47
2024-04-12 14:04 S 18 38 32 0.96 47
2024-04-12 13:04 S 18 38 35 0.96 47
2024-04-12 12:04 S 22 32 33 0.96 47
2024-04-12 11:04 SSE 13 21 36 0.96 48
2024-04-12 10:04 SSE 10 19 37 0.96 47
2024-04-12 09:04 SSE 10 14 49 0.96 40
2024-04-12 08:04 SSE 9 12 59 0.96 34
2024-04-12 07:04 SSE 7 12 62 0.96 32
2024-04-12 06:04 S 5 13 65 0.96 31
2024-04-12 05:04 SE 9 12 65 0.96 31
2024-04-12 04:04 SSE 9 12 64 0.96 31
2024-04-12 03:04 SSE 8 10 61 0.96 32
2024-04-12 02:04 SSE 6 9 59 0.96 32
2024-04-12 01:04 SE 4 10 59 0.96 31
2024-04-12 00:04 SE 7 12 56 0.96 32
2024-04-11 23:04 SSE 9 13 55 0.96 32
2024-04-11 22:04 SSE 6 13 52 0.96 32
2024-04-11 21:04 SSE 8 17 50 0.96 33
2024-04-11 20:04 SSE 10 17 47 0.96 34
2024-04-11 19:04 SSE 11 17 42 0.96 38
2024-04-11 18:04 S 10 20 36 0.96 41
2024-04-11 17:04 SSW 6 18 35 0.96 43
2024-04-11 16:04 SSW 9 17 33 0.96 41
2024-04-11 15:04 SSW 8 19 27 0.96 44
2024-04-11 14:04 SSW 10 18 29 0.96 41
2024-04-11 13:04 SW 10 17 26 0.96 40
2024-04-11 12:04 SSW 6 15 24 0.96 41
2024-04-11 11:04 S 10 17 30 0.96 39
2024-04-11 10:04 S 8 13 37 0.96 38
2024-04-11 09:04 S 5 8 52 0.96 31
2024-04-11 08:04 S 6 10 53 0.96 26
2024-04-11 07:04 SSW 6 12 48 0.96 23
2024-04-11 06:04 SSW 10 12 44 0.96 26
2024-04-11 05:04 SSW 10 12 44 0.96 26
2024-04-11 04:04 SSW 9 10 46 0.96 25
2024-04-11 03:04 S 5 11 49 0.96 25
2024-04-11 02:04 S 10 12 45 0.96 26
2024-04-11 01:04 SW 7 8 48 0.96 25
2024-04-11 00:04 SSW 6 10 44 0.96 27